Flag for Austria Weather past 2 weeks in Krems, Lower Austria, Austria

Now
51 °F

Cool.


Feels Like: 50 °F
Forecast: 52 / 64 °F
Wind: 3 mph from Northwest

Location: Retz

Current Time: May 25, 2015 at 3:46:42 AM

Latest Report: May 25, 2015 at 3:00 AM


Visibility: N/A

Pressure: 30.01 "Hg

Humidity: 94%

Dew point: 49 °F

Location of KremsLocation

Historic Weather in Krems — Graph

°F

Krems temperature yesterday

Maximum temperature yesterday: 58 °F (at 6:00 PM)
Minimum temperature yesterday: 49 °F (at 6:00 AM)
Average temperature yesterday: 53 °F

Past Weeks' High & Low Weather Summary

 TemperatureHumidityPressure
High74 °F (May 12, 5:00 PM)98% (May 23, 7:00 PM)30.41 "Hg (May 23, 7:00 PM)
Low45 °F (May 11, 6:00 AM)26% (May 11, 3:00 PM)29.72 "Hg (May 19, 6:00 AM)
Average58 °F66%30.04 "Hg
* Reported May 10 2:00 AM — May 25 2:00 AM, Krems, Weather by CustomWeather, © 2015

Note: Actual official high and low records may vary slightly from our data, if they occured in-between our weather recording intervals... More about our weather records

Advertising

Krems weather history for previous 24 hours

 ConditionsComfort  
Time TempWeatherWind HumidityBarometerVisibility
2:00 AM
Mon, May 25
52 °FCool.3 mph94%30.01 "HgN/A
1:00 AM53 °FCool.3 mph94%30.02 "HgN/A
12:00 AM53 °FCool.2 mph92%30.03 "HgN/A
10:00 PM
Sun, May 24
54 °FCool.1 mph89%30.05 "HgN/A
9:00 PM56 °FCool.1 mph87%30.03 "HgN/A
8:00 PM57 °FOvercast.No wind84%30.03 "Hg11 mi
7:00 PM58 °FCool.1 mph85%30.02 "HgN/A
6:00 PM58 °FCool.1 mph83%30.03 "HgN/A
5:00 PM57 °FCool.1 mph84%30.04 "HgN/A
4:00 PM56 °FCool.2 mph88%30.05 "HgN/A
3:00 PM56 °FCool.2 mph91%30.06 "HgN/A
2:00 PM55 °FOvercast.2 mph89%30.06 "Hg7 mi
1:00 PM54 °FCool.2 mph94%30.07 "HgN/A
12:00 PM53 °FCool.3 mph94%30.06 "HgN/A
11:00 AM52 °FCool.3 mph96%30.06 "HgN/A
10:00 AM51 °FCool.5 mph97%30.05 "HgN/A
9:00 AM50 °FCool.5 mph97%30.04 "HgN/A
8:00 AM50 °FLight rain. Overcast.5 mph97%30.03 "Hg4 mi
7:00 AM50 °FOvercast.5 mph97%30.01 "Hg2 mi
6:00 AM49 °FCool.3 mph98%30.01 "HgN/A
5:00 AM49 °FCool.3 mph98%30.00 "HgN/A
4:00 AM50 °FCool.3 mph98%30.00 "HgN/A
3:00 AM50 °FFog.5 mph96%29.99 "HgN/A
Weather by CustomWeather, © 2015

See weather overviewHow to use our weather pages